WA6MHA-11 Weather Reports


Display with metric or nautical units.
time (UTC)temp
F
wind
direction
speed
MPH
gust
MPH
rain 1hr
in
rain 24hr
in
rain mn
in
humidity
%
barometer
mb
20260508221805 82 135 4.0 11.0 0.00 0.00 0.00 28 1014.8
20260508220604 0 135 11.0 11.0 0.00 0.00 0.00 28 1015.0
20260508220602 84 135 11.0 11.0 0.00 0.00 0.00 28 1015.0
20260508220200 85 130 6.0 9.0 0.00 0.00 0.00 28 1015.1
20260508215758 86 146 5.0 9.0 0.00 0.00 0.00 28 1015.1
20260508214958 85 145 10.0 16.0 0.00 0.00 0.00 28 1015.2
20260508214556 85 148 4.0 9.0 0.00 0.00 0.00 28 1015.1
20260508214154 84 135 9.0 9.0 0.00 0.00 0.00 28 1015.2
20260508213752 85 155 3.0 9.0 0.00 0.00 0.00 28 1015.1
20260508212147 84 92 2.0 10.0 0.00 0.00 0.00 28 1015.3
20260508211348 85 160 2.0 9.0 0.00 0.00 0.00 28 1015.4
20260508210953 83 117 6.0 10.0 0.00 0.00 0.00 29 1015.4
20260508210548 84 137 6.0 9.0 0.00 0.00 0.00 29 1015.5
20260508210141 85 144 5.0 10.0 0.00 0.00 0.00 29 1015.5
20260508205744 86 126 8.0 13.0 0.00 0.00 0.00 29 1015.6
20260508204141 86 119 1.0 6.0 0.00 0.00 0.00 30 1015.7
20260508203733 86 175 1.0 7.0 0.00 0.00 0.00 30 1015.8
20260508203332 86 103 7.0 7.0 0.00 0.00 0.00 30 1015.8
20260508202931 87 222 4.0 7.0 0.00 0.00 0.00 30 1015.9
20260508202529 85 123 3.0 11.0 0.00 0.00 0.00 31 1015.9
20260508202128 86 195 4.0 8.0 0.00 0.00 0.00 31 1016.1
20260508201727 85 280 3.0 3.0 0.00 0.00 0.00 31 1016.1
20260508201325 83 114 0.0 7.0 0.00 0.00 0.00 31 1016.2
20260508200926 82 153 4.0 10.0 0.00 0.00 0.00 31 1016.1
20260508200121 83 92 4.0 7.0 0.00 0.00 0.00 32 1016.2
20260508194918 82 205 1.0 4.0 0.00 0.00 0.00 32 1016.2
20260508194517 80 63 4.0 7.0 0.00 0.00 0.00 32 1016.2
20260508194115 79 45 3.0 8.0 0.00 0.00 0.00 32 1016.4
20260508193714 79 63 6.0 9.0 0.00 0.00 0.00 32 1016.4
20260508193312 79 83 5.0 7.0 0.00 0.00 0.00 32 1016.5
20260508192513 81 135 9.0 9.0 0.00 0.00 0.00 33 1016.6
20260508191707 80 77 3.0 6.0 0.00 0.00 0.00 33 1016.7
20260508190905 82 126 4.0 6.0 0.00 0.00 0.00 34 1016.8
20260508185306 80 229 1.0 3.0 0.00 0.00 0.00 35 1017.0
20260508184858 78 97 0.0 2.0 0.00 0.00 0.00 35 1017.0
20260508182852 75 36 6.0 6.0 0.00 0.00 0.00 36 1017.1
20260508182451 76 51 4.0 7.0 0.00 0.00 0.00 36 1017.0
20260508182049 75 327 1.0 7.0 0.00 0.00 0.00 37 1017.2
20260508181247 74 78 4.0 8.0 0.00 0.00 0.00 38 1017.3
20260508180846 74 139 2.0 9.0 0.00 0.00 0.00 38 1017.3
20260508180444 73 92 8.0 8.0 0.00 0.00 0.00 39 1017.3
20260508174839 72 335 0.0 7.0 0.00 0.00 0.00 41 1017.4
20260508174038 73 20 1.0 1.0 0.00 0.00 0.00 42 1017.5
20260508173635 73 132 1.0 3.0 0.00 0.00 0.00 43 1017.5
20260508172832 72 38 0.0 3.0 0.00 0.00 0.00 44 1017.6
20260508172431 71 117 1.0 2.0 0.00 0.00 0.00 44 1017.6
20260508171629 71 42 1.0 3.0 0.00 0.00 0.00 46 1017.7
20260508171227 70 170 0.0 3.0 0.00 0.00 0.00 46 1017.7
20260508170826 69 265 0.0 1.0 0.00 0.00 0.00 47 1017.8
20260508170425 69 208 0.0 4.0 0.00 0.00 0.00 48 1017.7
20260508170024 68 297 2.0 5.0 0.00 0.00 0.00 47 1017.6
20260508165623 68 36 1.0 3.0 0.00 0.00 0.00 48 1017.7
20260508165225 67 306 1.0 3.0 0.00 0.00 0.00 48 1017.7
20260508164822 67 279 3.0 3.0 0.00 0.00 0.00 49 1017.7
20260508164419 67 227 2.0 3.0 0.00 0.00 0.00 49 1017.6
20260508163616 66 172 0.0 3.0 0.00 0.00 0.00 49 1017.6
20260508162012 64 180 0.0 2.0 0.00 0.00 0.00 51 1017.5
20260508161611 64 36 1.0 2.0 0.00 0.00 0.00 51 1017.5
20260508161208 64 225 0.0 2.0 0.00 0.00 0.00 51 1017.5
20260508155603 63 288 2.0 2.0 0.00 0.00 0.00 52 1017.5
20260508155202 63 283 1.0 2.0 0.00 0.00 0.00 52 1017.6
20260508154801 63 292 0.0 2.0 0.00 0.00 0.00 53 1017.5
20260508154359 62 202 1.0 2.0 0.00 0.00 0.00 53 1017.5
20260508153958 62 3 0.0 1.0 0.00 0.00 0.00 53 1017.6
20260508153157 62 56 0.0 1.0 0.00 0.00 0.00 53 1017.6
20260508152355 61 204 0.0 2.0 0.00 0.00 0.00 54 1017.6
20260508151149 60 146 1.0 3.0 0.00 0.00 0.00 56 1017.7
20260508150747 60 135 3.0 4.0 0.00 0.00 0.00 56 1017.7
20260508145945 60 135 1.0 2.0 0.00 0.00 0.00 56 1017.7
20260508145544 59 142 1.0 2.0 0.00 0.00 0.00 56 1017.5
20260508145143 59 342 0.0 2.0 0.00 0.00 0.00 56 1017.7
20260508144343 59 135 0.0 2.0 0.00 0.00 0.00 56 1017.7
20260508143542 59 130 0.0 1.0 0.00 0.00 0.00 56 1017.8
20260508143136 59 180 0.0 1.0 0.00 0.00 0.00 56 1017.7
20260508142735 58 235 1.0 1.0 0.00 0.00 0.00 57 1017.7
20260508142333 58 78 0.0 2.0 0.00 0.00 0.00 56 1017.8
20260508141531 58 101 1.0 2.0 0.00 0.00 0.00 56 1017.7
20260508141247 58 180 0.0 3.0 0.00 0.00 0.00 56 1017.8
20260508141130 58 180 0.0 3.0 0.00 0.00 0.00 56 1017.8
20260508140729 58 182 1.0 2.0 0.00 0.00 0.00 56 1017.6
20260508140329 58 182 0.0 1.0 0.00 0.00 0.00 55 1017.6
20260508135925 58 135 0.0 2.0 0.00 0.00 0.00 56 1017.6
20260508135524 58 184 1.0 4.0 0.00 0.00 0.00 55 1017.4
20260508135123 58 312 0.0 3.0 0.00 0.00 0.00 56 1017.5
20260508134722 58 166 1.0 1.0 0.00 0.00 0.00 55 1017.4
20260508134321 58 135 1.0 1.0 0.00 0.00 0.00 55 1017.4
20260508133518 58 135 4.0 4.0 0.00 0.00 0.00 56 1017.3
20260508133117 58 135 0.0 3.0 0.00 0.00 0.00 56 1017.3
20260508132316 58 182 0.0 1.0 0.00 0.00 0.00 56 1017.3
20260508131914 58 191 1.0 3.0 0.00 0.00 0.00 56 1017.4
20260508131516 58 135 1.0 2.0 0.00 0.00 0.00 56 1017.2
20260508125912 58 139 2.0 3.0 0.00 0.00 0.00 56 1017.1
20260508124705 58 83 0.0 4.0 0.00 0.00 0.00 56 1017.1
20260508123900 58 135 1.0 5.0 0.00 0.00 0.00 56 1017.0
20260508123459 57 135 1.0 3.0 0.00 0.00 0.00 56 1016.9
20260508123058 57 121 1.0 1.0 0.00 0.00 0.00 56 1016.9
20260508122657 57 184 1.0 2.0 0.00 0.00 0.00 56 1016.9
20260508122255 57 148 0.0 4.0 0.00 0.00 0.00 56 1017.0
20260508121853 57 182 0.0 1.0 0.00 0.00 0.00 56 1016.8
20260508121452 57 85 0.0 1.0 0.00 0.00 0.00 56 1016.8
20260508121051 57 180 0.0 2.0 0.00 0.00 0.00 56 1016.9
20260508120650 57 135 0.0 4.0 0.00 0.00 0.00 56 1016.8
20260508120249 57 135 2.0 3.0 0.00 0.00 0.00 56 1016.8
20260508115848 57 83 1.0 2.0 0.00 0.00 0.00 56 1016.7
20260508115446 57 78 0.0 1.0 0.00 0.00 0.00 56 1016.8
20260508114644 57 121 3.0 5.0 0.00 0.00 0.00 56 1016.8
20260508114242 56 121 3.0 3.0 0.00 0.00 0.00 57 1016.7
20260508113843 56 123 2.0 3.0 0.00 0.00 0.00 57 1016.7
20260508111836 55 123 4.0 4.0 0.00 0.00 0.00 57 1016.6
20260508111439 55 135 0.0 2.0 0.00 0.00 0.00 57 1016.6
20260508111036 55 135 0.0 1.0 0.00 0.00 0.00 57 1016.6
20260508110630 55 78 0.0 1.0 0.00 0.00 0.00 57 1016.7
20260508110231 54 81 0.0 1.0 0.00 0.00 0.00 58 1016.6
20260508105828 54 49 0.0 0.0 0.00 0.00 0.00 58 1016.6
20260508105432 54 342 0.0 0.0 0.00 0.00 0.00 58 1016.6
20260508105025 54 315 0.0 0.0 0.00 0.00 0.00 58 1016.6
20260508104625 53 303 0.0 0.0 0.00 0.00 0.00 58 1016.7
20260508104224 53 344 0.0 0.0 0.00 0.00 0.00 58 1016.5
20260508103822 53 310 0.0 0.0 0.00 0.00 0.00 58 1016.6
20260508103421 52 306 0.0 1.0 0.00 0.00 0.00 58 1016.6
20260508103021 52 306 0.0 0.0 0.00 0.00 0.00 58 1016.5
20260508102618 52 301 0.0 0.0 0.00 0.00 0.00 57 1016.6
20260508101816 52 229 0.0 0.0 0.00 0.00 0.00 57 1016.7
20260508101013 52 230 0.0 0.0 0.00 0.00 0.00 57 1016.7
20260508100612 53 227 0.0 0.0 0.00 0.00 0.00 57 1016.8
20260508095808 53 231 0.0 0.0 0.00 0.00 0.00 57 1016.8
20260508095407 53 306 0.0 0.0 0.00 0.00 0.00 57 1016.8
20260508095006 53 315 0.0 0.0 0.00 0.00 0.00 57 1016.6
20260508094605 53 306 0.0 0.0 0.00 0.00 0.00 57 1016.8
20260508094204 53 274 0.0 0.0 0.00 0.00 0.00 57 1016.7
20260508093802 53 279 0.0 0.0 0.00 0.00 0.00 57 1016.8
20260508093401 54 270 0.0 0.0 0.00 0.00 0.00 57 1016.8
20260508093001 54 229 0.0 0.0 0.00 0.00 0.00 57 1016.7
20260508092558 54 270 0.0 0.0 0.00 0.00 0.00 56 1016.8
20260508091756 54 270 0.0 0.0 0.00 0.00 0.00 56 1016.8
20260508091355 54 279 0.0 0.0 0.00 0.00 0.00 56 1016.7
20260508090953 54 279 0.0 0.0 0.00 0.00 0.00 56 1016.8
20260508090552 54 270 0.0 0.0 0.00 0.00 0.00 56 1016.9
20260508090152 54 229 0.0 0.0 0.00 0.00 0.00 56 1016.9
20260508085750 54 308 0.0 0.0 0.00 0.00 0.00 56 1016.9
20260508084546 55 270 0.0 0.0 0.00 0.00 0.00 56 1017.0
20260508084144 55 274 0.0 0.0 0.00 0.00 0.00 56 1017.0
20260508083743 55 337 0.0 0.0 0.00 0.00 0.00 56 1017.1
20260508083342 55 274 0.0 0.0 0.00 0.00 0.00 55 1017.2
20260508082941 55 283 0.0 1.0 0.00 0.00 0.00 55 1017.2
20260508082540 55 279 0.0 0.0 0.00 0.00 0.00 55 1017.3
20260508081736 55 342 0.0 1.0 0.00 0.00 0.00 55 1017.2
20260508080936 55 310 0.0 0.0 0.00 0.00 0.00 55 1017.3
20260508080134 56 292 0.0 0.0 0.00 0.00 0.00 55 1017.4
20260508075731 56 310 0.0 0.0 0.00 0.00 0.00 55 1017.5
20260508075329 56 337 0.0 0.0 0.00 0.00 0.00 55 1017.7
20260508074928 56 337 0.0 0.0 0.00 0.00 0.00 55 1017.5
20260508074527 57 182 0.0 0.0 0.00 0.00 0.00 55 1017.5
20260508074129 57 135 0.0 0.0 0.00 0.00 0.00 54 1017.5
20260508073724 57 135 1.0 1.0 0.00 0.00 0.00 54 1017.5
20260508073322 57 85 1.0 1.0 0.00 0.00 0.00 54 1017.5
20260508072921 57 45 0.0 0.0 0.00 0.00 0.00 54 1017.4
20260508072520 57 135 0.0 1.0 0.00 0.00 0.00 54 1017.5
20260508071718 57 227 0.0 2.0 0.00 0.00 0.00 54 1017.3
20260508071316 57 182 0.0 0.0 0.00 0.00 0.00 54 1017.3
20260508070914 57 182 0.0 2.0 0.00 0.00 0.00 54 1017.4
20260508070513 57 135 1.0 2.0 0.00 0.00 0.00 54 1017.4
20260508070113 57 162 1.0 2.0 0.00 0.00 0.00 54 1017.5
20260508065711 58 126 2.0 4.0 0.00 0.00 0.00 54 1017.3
20260508065310 58 135 2.0 4.0 0.00 0.00 0.00 54 1017.4
20260508064910 58 185 2.0 5.0 0.00 0.00 0.00 53 1017.3
20260508062902 58 135 2.0 3.0 0.00 0.00 0.00 53 1017.3
20260508062503 58 182 0.0 3.0 0.00 0.00 0.00 53 1017.3
20260508061658 58 231 1.0 3.0 0.00 0.00 0.00 52 1017.2
20260508061257 58 135 2.0 3.0 0.00 0.00 0.00 52 1017.1
20260508060856 58 135 3.0 3.0 0.00 0.00 0.00 52 1017.1
20260508060455 58 135 2.0 4.0 0.00 0.00 0.00 52 1017.1
20260508060053 58 135 3.0 6.0 0.00 0.00 0.00 52 1017.1
20260508055656 58 135 4.0 5.0 0.00 0.00 0.00 52 1017.0
20260508055251 58 135 3.0 6.0 0.00 0.00 0.00 52 1017.0
20260508054849 58 135 4.0 7.0 0.00 0.00 0.00 51 1017.0
20260508054449 58 135 4.0 5.0 0.00 0.00 0.00 51 1017.1
20260508053646 58 135 3.0 6.0 0.00 0.00 0.00 51 1017.1
20260508052843 59 126 5.0 6.0 0.00 0.00 0.00 51 1017.2
20260508052443 59 123 3.0 5.0 0.00 0.00 0.00 51 1017.1
20260508052040 59 123 3.0 6.0 0.00 0.00 0.00 50 1017.1
20260508051643 60 135 3.0 3.0 0.00 0.00 0.00 50 1017.1
20260508050435 60 135 2.0 3.0 0.00 0.00 0.00 50 1016.9
20260508045633 60 135 4.0 4.0 0.00 0.00 0.00 49 1017.0
20260508045231 61 135 2.0 3.0 0.00 0.00 0.00 49 1016.8
20260508044831 61 148 2.0 3.0 0.00 0.00 0.00 49 1016.8
20260508044429 61 135 0.0 3.0 0.00 0.00 0.00 49 1016.8
20260508043626 61 121 4.0 6.0 0.00 0.00 0.00 48 1016.6
20260508043225 61 135 4.0 6.0 0.00 0.00 0.00 48 1016.6
20260508042824 61 130 5.0 6.0 0.00 0.00 0.00 48 1016.6
20260508042422 61 123 4.0 6.0 0.00 0.00 0.00 48 1016.5
20260508041619 62 135 3.0 4.0 0.00 0.00 0.00 47 1016.4
20260508041219 62 110 3.0 5.0 0.00 0.00 0.00 47 1016.3
20260508040817 62 123 4.0 5.0 0.00 0.00 0.00 46 1016.3
20260508040416 62 87 3.0 4.0 0.00 0.00 0.00 46 1016.3
20260508035613 63 132 2.0 3.0 0.00 0.00 0.00 46 1016.1
20260508035212 63 128 3.0 5.0 0.00 0.00 0.00 45 1016.0
20260508034811 63 96 3.0 4.0 0.00 0.00 0.00 45 1016.0
20260508034409 63 135 3.0 4.0 0.00 0.00 0.00 45 1015.9
20260508034010 63 83 3.0 6.0 0.00 0.00 0.00 44 1015.9
20260508033205 64 126 5.0 6.0 0.00 0.00 0.00 43 1015.9
20260508032403 64 130 6.0 6.0 0.00 0.00 0.00 42 1015.7
20260508031202 65 130 3.0 6.0 0.00 0.00 0.00 41 1015.6
20260508030358 66 112 3.0 5.0 0.00 0.00 0.00 40 1015.4
20260508025955 67 112 4.0 5.0 0.00 0.00 0.00 39 1015.3
20260508025554 67 135 4.0 6.0 0.00 0.00 0.00 39 1015.4
20260508024752 67 112 4.0 5.0 0.00 0.00 0.00 38 1015.1
20260508024351 68 123 5.0 5.0 0.00 0.00 0.00 37 1015.1
20260508023146 69 135 4.0 5.0 0.00 0.00 0.00 36 1014.9
20260508022747 70 135 4.0 8.0 0.00 0.00 0.00 35 1014.8
20260508022343 70 130 4.0 5.0 0.00 0.00 0.00 35 1014.7
20260508020337 72 135 6.0 8.0 0.00 0.00 0.00 33 1014.5
20260508015936 73 123 5.0 6.0 0.00 0.00 0.00 33 1014.5
20260508015534 73 135 6.0 11.0 0.00 0.00 0.00 32 1014.5
20260508014732 74 135 4.0 8.0 0.00 0.00 0.00 32 1014.4
20260508013930 74 180 2.0 9.0 0.00 0.00 0.00 31 1014.5
20260508012725 75 135 8.0 14.0 0.00 0.00 0.00 30 1014.5
20260508012324 76 135 9.0 12.0 0.00 0.00 0.00 30 1014.5
20260508011522 76 135 9.0 9.0 0.00 0.00 0.00 29 1014.4
20260508010721 76 135 7.0 8.0 0.00 0.00 0.00 29 1014.5
20260508005916 76 135 9.0 9.0 0.00 0.00 0.00 28 1014.5
20260508005123 77 135 11.0 11.0 0.00 0.00 0.00 28 1014.5
20260508002709 79 139 5.0 9.0 0.00 0.00 0.00 28 1014.5
20260508002307 80 135 7.0 11.0 0.00 0.00 0.00 28 1014.4
20260508001904 81 130 8.0 8.0 0.00 0.00 0.00 28 1014.4
20260508001101 80 135 8.0 10.0 0.00 0.00 0.00 27 1014.5
20260508000700 80 135 6.0 10.0 0.00 0.00 0.00 27 1014.5
20260508000305 80 135 8.0 11.0 0.00 0.00 0.00 27 1014.4
20260507235456 79 123 7.0 13.0 0.00 0.00 0.00 27 1014.5
20260507235054 81 101 10.0 10.0 0.00 0.00 0.00 27 1014.4
20260507234653 82 135 5.0 9.0 0.00 0.00 0.00 27 1014.6
20260507234252 82 135 9.0 9.0 0.00 0.00 0.00 26 1014.5
20260507233851 82 87 7.0 9.0 0.00 0.00 0.00 26 1014.5
20260507233048 82 137 6.0 9.0 0.00 0.00 0.00 26 1014.6
20260507231449 84 135 5.0 9.0 0.00 0.00 0.00 26 1014.5
20260507231042 85 117 5.0 15.0 0.00 0.00 0.00 26 1014.6
20260507230640 86 135 14.0 15.0 0.00 0.00 0.00 26 1014.5
20260507225437 88 72 2.0 5.0 0.00 0.00 0.00 25 1014.6
20260507223837 88 162 5.0 7.0 0.00 0.00 0.00 25 1014.7
20260507223432 89 140 3.0 7.0 0.00 0.00 0.00 25 1014.7
20260507223029 88 182 2.0 6.0 0.00 0.00 0.00 25 1014.8